Manistique, MI

7:24 AM EDT on October 20, 2017 (GMT -0400)
Schoolcraft County

Weather History for KISQ - October, 2013

Change the Weather History Date:

Thursday, October 24, 2013

  Actual Average Record
Temperature  
Mean Temperature 36 °F -  
Max Temperature 43 °F 52 °F 65 °F (1963)
Min Temperature 30 °F 35 °F 21 °F (1981)
Degree Days  
Heating Degree Days 28    
Moisture  
Dew Point 32 °F    
Average Humidity 88    
Maximum Humidity 97    
Minimum Humidity 70    
Precipitation  
Precipitation 0.00 in - - ()
Sea Level Pressure  
Sea Level Pressure 29.98 in    
Wind  
Wind Speed 11 mph (WNW)    
Max Wind Speed 17 mph    
Max Gust Speed 23 mph    
Visibility 10 miles    
Events Rain , Snow    
Averages and records for this station are not official NWS values.
T = Trace of Precipitation, MM = Missing Value Source: NWS Daily Summary

Daily Weather History Graph

Daily Weather History Graph

Search for Another Location

Airport or City:

Trip Planner

Search our weather history database for the weather conditions in past years. The results will help you decide how hot, cold, wet, or windy it might be!

Date:

Astronomy

Oct. 24, 2013 Rise Set
Actual Time 8:14 AM EDT 6:42 PM EDT
Civil Twilight 7:43 AM EDT 7:13 PM EDT
Nautical Twilight 7:08 AM EDT 7:48 PM EDT
Astronomical Twilight 6:34 AM EDT 8:22 PM EDT
Moon 10:59 PM EDT (10/24) 1:22 PM EDT (10/24)
Length of Visible Light 11h 29m
Length of Day
10h 28m
Waning Gibbous, 71% of the Moon is Illuminated
Oct 24
Waning Gibbous
Oct 26
Last Quarter
Nov 3
New
Nov 10
First Quarter
Nov 17
Full

Hourly Weather History & Observations

Time (EDT) Temp. Windchill Dew Point Humidity Pressure Visibility Wind Dir Wind Speed Gust Speed Precip Events Conditions
12:15 AM 32.0 °F 23.6 °F 28.0 °F 85% 29.86 in 10.0 mi WNW 10.4 mph - N/A   Scattered Clouds
12:34 AM 32.0 °F 23.0 °F 28.2 °F 86% 29.86 in 10.0 mi WNW 11.5 mph - N/A Snow Light Snow
12:55 AM 32.0 °F 24.2 °F 28.2 °F 86% 29.86 in 10.0 mi WNW 9.2 mph - N/A   Mostly Cloudy
1:15 AM 31.3 °F 23.3 °F 28.4 °F 89% 29.86 in 10.0 mi WNW 9.2 mph - N/A   Scattered Clouds
1:34 AM 31.8 °F 23.3 °F 28.9 °F 89% 29.86 in 10.0 mi WNW 10.4 mph - N/A   Mostly Cloudy
1:55 AM 31.1 °F 23.1 °F 28.6 °F 90% 29.86 in 10.0 mi West 9.2 mph - N/A   Mostly Cloudy
2:15 AM 31.6 °F 24.4 °F 29.3 °F 91% 29.87 in 10.0 mi WNW 8.1 mph - N/A   Mostly Cloudy
2:35 AM 32.0 °F 23.6 °F 29.5 °F 90% 29.87 in 10.0 mi WNW 10.4 mph - N/A   Overcast
2:55 AM 32.0 °F 24.2 °F 30.2 °F 93% 29.87 in 10.0 mi WNW 9.2 mph - N/A   Overcast
3:15 AM 31.3 °F 22.7 °F 29.5 °F 93% 29.87 in 10.0 mi West 10.4 mph - N/A   Mostly Cloudy
3:35 AM 30.7 °F 22.0 °F 29.3 °F 94% 29.87 in 7.0 mi West 10.4 mph - N/A   Scattered Clouds
3:55 AM 30.7 °F 22.6 °F 29.5 °F 95% 29.87 in 10.0 mi WNW 9.2 mph - N/A   Scattered Clouds
4:14 AM 30.2 °F 22.6 °F 29.1 °F 96% 29.87 in 10.0 mi WNW 8.1 mph - N/A   Mostly Cloudy
4:35 AM 30.6 °F 22.4 °F 29.7 °F 96% 29.87 in 10.0 mi WNW 9.2 mph - N/A   Scattered Clouds
4:55 AM 30.9 °F 22.8 °F 30.0 °F 96% 29.88 in 10.0 mi WNW 9.2 mph - N/A   Scattered Clouds
5:14 AM 31.1 °F 22.4 °F 30.2 °F 96% 29.88 in 5.0 mi West 10.4 mph - N/A Snow Light Snow
5:35 AM 30.7 °F 22.6 °F 29.8 °F 96% 29.88 in 10.0 mi WNW 9.2 mph - N/A   Scattered Clouds
5:55 AM 30.7 °F 21.4 °F 29.8 °F 96% 29.89 in 10.0 mi WNW 11.5 mph 17.3 mph N/A   Scattered Clouds
6:15 AM 30.9 °F 21.7 °F 30.0 °F 96% 29.89 in 10.0 mi WNW 11.5 mph - N/A   Clear
6:35 AM 30.9 °F 22.2 °F 30.2 °F 97% 29.90 in 10.0 mi WNW 10.4 mph - N/A   Clear
6:55 AM 31.6 °F 23.1 °F 30.7 °F 96% 29.90 in 10.0 mi WNW 10.4 mph - N/A   Clear
7:15 AM 31.8 °F 22.8 °F 30.9 °F 96% 29.91 in 10.0 mi WNW 11.5 mph - N/A   Clear
7:35 AM 32.0 °F 23.0 °F 30.7 °F 95% 29.91 in 10.0 mi WNW 11.5 mph 17.3 mph N/A   Clear
7:54 AM 31.6 °F 22.6 °F 30.6 °F 96% 29.92 in 10.0 mi WNW 11.5 mph - N/A   Clear
8:15 AM 31.6 °F 23.1 °F 30.6 °F 96% 29.92 in 10.0 mi WNW 10.4 mph - N/A   Scattered Clouds
8:35 AM 31.6 °F 22.6 °F 30.4 °F 95% 29.93 in 10.0 mi WNW 11.5 mph - N/A   Scattered Clouds
8:55 AM 32.0 °F 23.0 °F 30.7 °F 95% 29.93 in 10.0 mi WNW 11.5 mph - N/A   Mostly Cloudy
9:15 AM 32.4 °F 23.5 °F 31.1 °F 95% 29.94 in 10.0 mi WNW 11.5 mph - N/A   Overcast
9:35 AM 33.3 °F 24.6 °F 31.8 °F 94% 29.94 in 10.0 mi WNW 11.5 mph - N/A   Overcast
9:55 AM 34.0 °F 25.0 °F 32.0 °F 92% 29.95 in 10.0 mi WNW 12.7 mph 16.1 mph N/A   Overcast
10:15 AM 34.7 °F 25.5 °F 32.0 °F 90% 29.95 in 10.0 mi WNW 13.8 mph 17.3 mph N/A   Overcast
10:35 AM 36.0 °F 28.0 °F 32.5 °F 87% 29.95 in 10.0 mi WNW 11.5 mph 17.3 mph N/A   Overcast
10:55 AM 37.2 °F 28.7 °F 32.9 °F 84% 29.96 in 10.0 mi WNW 13.8 mph 17.3 mph N/A   Overcast
11:15 AM 38.3 °F 31.4 °F 33.4 °F 83% 29.97 in 10.0 mi NW 10.4 mph 17.3 mph N/A   Overcast
11:35 AM 38.8 °F 32.1 °F 33.6 °F 82% 29.97 in 10.0 mi WNW 10.4 mph 17.3 mph N/A   Overcast
11:55 AM 39.2 °F 31.6 °F 33.4 °F 80% 29.98 in 10.0 mi NW 12.7 mph - N/A   Overcast
12:15 PM 39.6 °F 33.5 °F 33.8 °F 80% 29.98 in 10.0 mi NW 9.2 mph - N/A   Overcast
12:35 PM 41.2 °F 33.7 °F 34.2 °F 76% 29.99 in 10.0 mi NW 13.8 mph 18.4 mph N/A   Overcast
12:54 PM 40.5 °F 33.2 °F 34.2 °F 78% 29.99 in 10.0 mi NW 12.7 mph 23.0 mph N/A   Overcast
1:15 PM 41.2 °F 34.1 °F 34.3 °F 77% 30.00 in 10.0 mi NW 12.7 mph 20.7 mph N/A   Overcast
1:35 PM 41.0 °F 33.9 °F 34.5 °F 78% 30.00 in 10.0 mi NW 12.7 mph 19.6 mph N/A   Overcast
1:55 PM 41.9 °F 35.4 °F 34.2 °F 74% 30.00 in 10.0 mi NW 11.5 mph - N/A   Overcast
2:15 PM 41.5 °F 34.2 °F 34.2 °F 75% 30.00 in 10.0 mi WNW 13.8 mph 19.6 mph N/A   Overcast
2:35 PM 42.1 °F 35.7 °F 34.0 °F 73% 30.01 in 10.0 mi NW 11.5 mph 20.7 mph N/A   Overcast
2:55 PM 42.3 °F 34.8 °F 34.7 °F 75% 30.01 in 10.0 mi NW 15.0 mph 18.4 mph N/A   Overcast
3:15 PM 39.7 °F 34.3 °F 36.3 °F 88% 30.01 in 7.0 mi NW 8.1 mph 19.6 mph N/A Rain Light Rain
3:34 PM 41.0 °F 33.9 °F 36.0 °F 82% 30.02 in 10.0 mi NW 12.7 mph 20.7 mph N/A   Overcast
3:55 PM 41.2 °F 33.7 °F 36.3 °F 83% 30.02 in 10.0 mi WNW 13.8 mph 19.6 mph N/A   Overcast
4:15 PM 43.3 °F 36.8 °F 34.9 °F 72% 30.03 in 10.0 mi WNW 12.7 mph 21.9 mph N/A   Overcast
4:34 PM 42.6 °F 34.6 °F 34.2 °F 72% 30.03 in 10.0 mi WNW 17.3 mph 21.9 mph N/A   Overcast
4:55 PM 43.0 °F 35.4 °F 33.6 °F 70% 30.04 in 10.0 mi WNW 16.1 mph 21.9 mph N/A   Overcast
5:15 PM 41.2 °F 33.4 °F 33.4 °F 74% 30.05 in 10.0 mi NW 15.0 mph 23.0 mph N/A   Overcast
5:35 PM 41.0 °F 34.7 °F 32.9 °F 73% 30.05 in 10.0 mi NW 10.4 mph 17.3 mph N/A   Scattered Clouds
5:55 PM 39.7 °F 33.7 °F 33.1 °F 77% 30.06 in 10.0 mi NW 9.2 mph 18.4 mph N/A   Mostly Cloudy
6:15 PM 39.0 °F 31.0 °F 32.9 °F 79% 30.06 in 10.0 mi NW 13.8 mph 19.6 mph N/A   Overcast
6:35 PM 37.4 °F 30.3 °F 32.9 °F 84% 30.08 in 10.0 mi NW 10.4 mph 20.7 mph N/A   Mostly Cloudy
6:55 PM 36.5 °F 29.7 °F 32.5 °F 86% 30.08 in 10.0 mi NW 9.2 mph - N/A   Mostly Cloudy
7:15 PM 36.1 °F 29.9 °F 32.4 °F 86% 30.09 in 10.0 mi NW 8.1 mph - N/A   Overcast
7:35 PM 36.0 °F 29.6 °F 32.4 °F 87% 30.10 in 10.0 mi NW 8.1 mph - N/A   Overcast
7:55 PM 35.8 °F 28.8 °F 32.5 °F 88% 30.10 in 10.0 mi NW 9.2 mph - N/A   Overcast
8:15 PM 34.9 °F 28.3 °F 32.4 °F 91% 30.10 in 10.0 mi NW 8.1 mph - N/A   Scattered Clouds
8:34 PM 34.7 °F 27.5 °F 32.2 °F 91% 30.11 in 10.0 mi NW 9.2 mph - N/A   Scattered Clouds
8:55 PM 34.0 °F 27.2 °F 32.0 °F 92% 30.11 in 10.0 mi WNW 8.1 mph - N/A   Scattered Clouds
9:15 PM 33.8 °F 27.0 °F 32.0 °F 93% 30.11 in 10.0 mi WNW 8.1 mph - N/A   Mostly Cloudy
9:34 PM 33.1 °F 26.9 °F 31.6 °F 94% 30.11 in 10.0 mi NW 6.9 mph - N/A   Mostly Cloudy
9:55 PM 32.5 °F 26.2 °F 31.1 °F 94% 30.11 in 10.0 mi WNW 6.9 mph - N/A   Scattered Clouds
10:15 PM 32.0 °F 25.6 °F 30.4 °F 94% 30.11 in 10.0 mi WNW 6.9 mph - N/A   Clear
10:35 PM 32.0 °F 24.8 °F 30.2 °F 93% 30.11 in 10.0 mi WNW 8.1 mph - N/A   Scattered Clouds
10:55 PM 32.0 °F 25.6 °F 30.7 °F 95% 30.12 in 10.0 mi WNW 6.9 mph - N/A   Mostly Cloudy
11:14 PM 32.0 °F 24.8 °F 30.7 °F 95% 30.12 in 10.0 mi WNW 8.1 mph - N/A   Mostly Cloudy
11:35 PM 32.9 °F 25.9 °F 31.5 °F 94% 30.12 in 10.0 mi WNW 8.1 mph - N/A   Overcast
11:55 PM 33.1 °F 26.1 °F 31.1 °F 92% 30.13 in 10.0 mi NW 8.1 mph - N/A   Mostly Cloudy